Tracking 29033 objects as of 22-Jun-2024
HD Live streaming from Space Station
objects crossing your sky now

STARLINK-3460

Track STARLINK-3460 now!
10-day predictions
STARLINK-3460 is classified as:


NORAD ID: 51755
Int'l Code: 2022-016AT
Perigee: 545.9 km
Apogee: 547.9 km
Inclination: 53.2 °
Period: 95.4 minutes
Semi major axis: 6917 km
RCS: Unknown
Launch date: February 21, 2022
Source: United States (US)
Launch site: AIR FORCE EASTERN TEST RANGE (AFETR)
Your satellite tracking list
Your tracking list is empty




NASA's NSSDC Master Catalog

Two Line Element Set (TLE):
1 51755U 22016AT  24173.45989385  .00001747  00000-0  12784-3 0  9996
2 51755  53.2186 240.3761 0001428 106.2757 253.8392 15.08841634130282
Source of the keplerian elements: AFSPC